Regional Weather Roundup
Issued by NWS

Home | Current Version | Previous Version | Graphics & Text | Print | Product List | Glossary On
Versions: 1 2 3 4 5 6 7 8 9 10 11 12 13 14 15 16 17 18 19 20 21 22 23 24 25 26 27 28 29 30 31 32 33 34 35 36 37 38 39 40 41 42 43 44 45 46 47 48 49 50
000
ASUS43 KOAX 171902
RWRNE

WEATHER ROUNDUP FOR NEBRASKA
NATIONAL WEATHER SERVICE OMAHA NE
100 PM CST WED DEC 17 2014

NOTES: SATELLITE DATA IS BEING USED TO AUGMENT CLOUD COVER ABOVE
       12000 FEET.
       "FAIR" INDICATES FEW OR NO CLOUDS BELOW 12,000 FEET WITH NO
       SIGNIFICANT WEATHER AND/OR OBSTRUCTIONS TO VISIBILITY.

  * THESE STATIONS DO NOT REPORT WEATHER SUCH AS RAIN...SNOW OR FOG.

NEZ001>004-019>022-054>056-172000-
NEBRASKA PANHANDLE

CITY           SKY/WX    TMP DP  RH WIND       PRES   REMARKS
SCOTTSBLUFF    PTSUNNY   22  19  89 E10       29.97F WCI  11
ALLIANCE       CLOUDY    23  21  92 S13       29.98F WCI  11
CHADRON        MOSUNNY   24  19  81 CALM      29.99F
SIDNEY         FOG       21  19  92 S10       29.99F VSB 3/4 WCI  10
$$

NEZ057>060-069>072-079>082-172000-
SOUTHWEST NEBRASKA

CITY           SKY/WX    TMP DP  RH WIND       PRES   REMARKS
NORTH PLATTE   CLOUDY    22  20  92 SE7       30.12F WCI  13
IMPERIAL       CLOUDY    23  20  88 SE9       30.08F FOG     WCI  13
MCCOOK         CLOUDY    23  21  92 E10       30.14F FOG     WCI  12
$$

NEZ005>010-023>029-035>040-094-172000-
NORTH CENTRAL NEBRASKA

CITY           SKY/WX    TMP DP  RH WIND       PRES   REMARKS
VALENTINE      CLOUDY    22  19  89 S12       30.12F WCI  10
BROKEN BOW     CLOUDY    21  19  92 SE7       30.15F FOG     WCI  12
ORD            CLOUDY    21  18  88 S7        30.19F WCI  12
$$

NEZ041-046>049-061>064-073>077-083>087-172000-
SOUTH CENTRAL NEBRASKA

CITY           SKY/WX    TMP DP  RH WIND       PRES   REMARKS
GRAND ISLAND   CLOUDY    24  19  81 SE7       30.23F WCI  16
HASTINGS       CLOUDY    24  18  77 SE7       30.20F WCI  16
KEARNEY *      CLOUDY    23  19  86 E8        30.19F WCI  14
$$

NEZ011>018-030>034-042>045-172000-
NORTHEAST NEBRASKA

CITY           SKY/WX    TMP DP  RH WIND       PRES   REMARKS
NORFOLK        MOSUNNY   25  15  66 S6        30.25F WCI  18
BLAIR          MOSUNNY   27  17  65 CALM      30.28F
COLUMBUS *     CLOUDY    25  12  58 E5        30.28F WCI  19
TEKAMAH        MOSUNNY   24  14  65 CALM      30.31F
$$

NEZ050>053-065>068-078-088>093-172000-
SOUTHEAST NEBRASKA

CITY           SKY/WX    TMP DP  RH WIND       PRES   REMARKS
LINCOLN        CLOUDY    25  15  66 NE3       30.29F
OMAHA EPPLEY   PTSUNNY   26  15  63 NW5       30.32F WCI  20
FALLS CITY     CLOUDY    27  17  66 E5        30.30F WCI  22
$$

NEZ044-045-051>053-067-172000-
OMAHA AREA

CITY           SKY/WX    TMP DP  RH WIND       PRES   REMARKS
OMAHA EPPLEY   PTSUNNY   26  15  63 NW5       30.32F WCI  20
BLAIR          MOSUNNY   27  17  65 CALM      30.28F
OFFUTT AFB     PTSUNNY   26  15  62 VRB3      30.30F
$$



USA.gov is the U.S. government's official web portal to all federal, state and local government web resources and services.